Location: Jackson Park
(37.2862°N, 79.9123°W)
Time: 01:41:01
(UTC+00:00)

Altair - Visible Passes

Search period start: 14 May 2026 00:00
Search period end: 24 May 2026 00:00
Orbit: 1501 x 1682 km, 47.2° (Epoch: 13 May)

Date Brightness Start Highest point End Pass type
(mag) Time Alt. Az. Time Alt. Az. Time Alt. Az.
14 May 9.5 07:13:56 10° SE 07:14:46 10° ESE 07:15:36 10° ESE visible
14 May 8.2 09:08:29 10° SSW 09:17:45 50° SE 09:27:20 10° ENE visible
15 May 8.3 08:44:19 13° SSW 08:52:34 46° SE 09:01:57 10° ENE visible
16 May 8.3 08:20:34 18° SSW 08:27:23 42° SE 08:36:33 10° ENE visible
17 May 8.4 07:56:44 22° S 08:02:13 38° SE 08:11:07 10° ENE visible
18 May 8.5 07:32:52 25° S 07:37:04 34° SE 07:45:41 10° ENE visible
18 May 7.7 09:31:20 10° WSW 09:41:11 84° NNW 09:51:23 10° ENE visible
19 May 8.5 07:08:55 26° SSE 07:11:55 31° SE 07:20:13 10° ENE visible
19 May 7.7 09:06:56 13° SW 09:15:54 89° NNW 09:26:05 10° ENE visible
20 May 8.5 06:44:56 26° SE 06:46:47 28° SE 06:54:43 10° ENE visible
20 May 7.6 08:42:56 19° SW 08:50:37 86° SSE 09:00:46 10° ENE visible
21 May 8.6 06:20:54 25° SE 06:21:39 25° SE 06:29:09 10° ENE visible
21 May 7.6 08:18:54 25° SW 08:25:21 81° SE 08:35:27 10° ENE visible
22 May 8.7 05:56:48 22° ESE 05:56:48 22° ESE 06:03:33 10° E visible
22 May 7.6 07:54:48 32° SW 08:00:07 76° SE 08:10:09 10° ENE visible
23 May 8.9 05:32:40 19° ESE 05:32:40 19° ESE 05:37:52 10° E visible
23 May 7.6 07:30:39 39° SSW 07:34:53 71° SE 07:44:49 10° ENE visible
23 May 8.1 09:30:31 10° W 09:40:09 57° NNW 09:50:06 10° ENE visible
